Home > Weather > Mulhouse > Past weeks

Flag for France Past Weather in Mulhouse, Alsace, France — Yesterday and Last 2 Weeks

Now
59 °F

Clear.


Feels Like: 60 °F
Forecast: 62 / 81 °F
Wind: 3 mph from West

Location: Bale-Mulhouse

Current Time: Jul 28, 2016 at 3:09:42 AM

Latest Report: Jul 28, 2016 at 2:30 AM


Visibility: 10 mi

Pressure: 30.09 "Hg

Humidity: 88%

Dew Point: 55 °F

Location of MulhouseLocation

Past Weather in Mulhouse — Graph

°F

Mulhouse Temperature Yesterday

Maximum temperature yesterday: 81 °F (at 3:00 PM)
Minimum temperature yesterday: 63 °F (at 3:00 AM)
Average temperature yesterday: 72 °F

High & Low Weather Summary for the Past Weeks

 TemperatureHumidityPressure
High95 °F (Jul 20, 3:30 PM)100% (Jul 13, 2:00 AM)30.33 "Hg (Jul 13, 2:00 AM)
Low45 °F (Jul 16, 5:00 AM)27% (Jul 19, 7:00 PM)29.95 "Hg (Jul 20, 4:00 PM)
Average69 °F72%30.12 "Hg
* Reported Jul 13 2:00 AM — Jul 28 2:00 AM, Mulhouse, Weather by CustomWeather, © 2016

Note: Actual official high and low records may vary slightly from our data, if they occured in-between our weather recording intervals... More about our weather records

Advertising

Mulhouse Weather History for the Previous 24 Hours

Scroll right to see more
 ConditionsComfort  
Time TempWeatherWind HumidityBarometerVisibility
2:00 AM
Thu, Jul 28
61 °FPassing clouds.1 mph83%30.09 "HgN/A
1:30 AM63 °FClear.2 mph83%30.09 "Hg10 mi
1:00 AM64 °FClear.1 mph73%30.09 "Hg10 mi
12:30 AM64 °FClear.2 mph73%30.09 "Hg10 mi
12:00 AM66 °FClear.2 mph73%30.09 "Hg10 mi
11:30 PM
Wed, Jul 27
68 °FPassing clouds.2 mph69%30.09 "HgN/A
11:00 PM70 °FPassing clouds.2 mph64%30.09 "HgN/A
10:30 PM70 °FPassing clouds.2 mph60%30.09 "HgN/A
10:00 PM72 °FScattered clouds.7 mph57%30.09 "HgN/A
9:30 PM72 °FScattered clouds.8 mph61%30.07 "HgN/A
9:00 PM73 °FScattered clouds.8 mph57%30.07 "HgN/A
8:30 PM75 °FPartly sunny.10 mph54%30.07 "HgN/A
8:00 PM75 °FPartly sunny.13 mph50%30.07 "HgN/A
7:30 PM75 °FPartly sunny.12 mph50%30.04 "HgN/A
7:00 PM75 °FPartly sunny.13 mph50%30.04 "HgN/A
6:30 PM79 °FPartly sunny.13 mph42%30.04 "HgN/A
6:00 PM81 °FPartly sunny.12 mph39%30.04 "HgN/A
5:30 PM81 °FPartly sunny.12 mph39%30.04 "HgN/A
5:00 PM81 °FPartly sunny.10 mph37%30.04 "HgN/A
4:30 PM81 °FPartly sunny.9 mph37%30.04 "HgN/A
4:00 PM81 °FPartly sunny.10 mph34%30.04 "HgN/A
3:30 PM81 °FPartly sunny.8 mph37%30.07 "HgN/A
3:00 PM81 °FPartly sunny.8 mph42%30.07 "HgN/A
2:30 PM79 °FPartly sunny.9 mph42%30.07 "HgN/A
2:00 PM79 °FScattered clouds.9 mph39%30.07 "HgN/A
1:30 PM79 °FScattered clouds.9 mph45%30.09 "HgN/A
1:00 PM79 °FScattered clouds.12 mph45%30.09 "HgN/A
12:30 PM77 °FScattered clouds.6 mph51%30.09 "HgN/A
12:00 PM75 °FScattered clouds.7 mph57%30.09 "HgN/A
11:30 AM75 °FScattered clouds.7 mph57%30.09 "HgN/A
11:00 AM73 °FScattered clouds.6 mph65%30.09 "HgN/A
10:30 AM72 °FScattered clouds.6 mph69%30.09 "HgN/A
10:00 AM72 °FPartly sunny.8 mph69%30.09 "HgN/A
9:30 AM72 °FPartly sunny.7 mph69%30.09 "HgN/A
9:00 AM68 °FPartly sunny.5 mph78%30.09 "HgN/A
8:30 AM68 °FPartly sunny.3 mph78%30.09 "HgN/A
8:00 AM68 °FPartly sunny.2 mph78%30.09 "HgN/A
7:30 AM66 °FPartly sunny.3 mph83%30.09 "HgN/A
7:00 AM66 °FPassing clouds.2 mph83%30.09 "HgN/A
6:30 AM66 °FPassing clouds.2 mph83%30.09 "HgN/A
6:00 AM66 °FPartly cloudy.2 mph83%30.09 "HgN/A
5:30 AM66 °FPartly cloudy.2 mph83%30.09 "HgN/A
5:00 AM64 °FClear.1 mph94%30.09 "Hg10 mi
4:30 AM64 °FClear.No wind94%30.09 "Hg10 mi
4:00 AM64 °FPassing clouds.2 mph94%30.09 "HgN/A
3:30 AM64 °FClear.2 mph94%30.09 "Hg10 mi
3:00 AM63 °FClear.5 mph94%30.09 "Hg10 mi
Weather by CustomWeather, © 2016

See weather overviewHow to use our weather pages